Simultaneous Nadir Overpasses (SNOs) Predictions

Prediction of SNOs between AQUA and METOP-A Satellite Orbit:

Table of predicted SNOs for the next 14.0 days since TLE Epoch: 9/11/2015
Index Date (AQUA) Time (AQUA) Lat,Lon (AQUA) SZA (AQUA ) Date (METOP-A) Time (METOP-A) Lat,Lon (METOP-A) SZA (METOP-A ) Distance(km) Time Diff (sec)
1 09/12/2015 12:43:58 73.86, -16.79 69.65 09/12/2015 12:42:45 73.86, -16.94 69.67 4.92 73
2 09/12/2015 13:33:26 -73.97, 150.61 110.23 09/12/2015 13:33:25 -73.95, 150.58 110.24 2.22 1
3 09/12/2015 14:22:54 74.01, -41.85 69.84 09/12/2015 14:24:03 74.04, -41.86 69.86 3.52 69
4 09/15/2015 08:18:14 73.91, 49.52 70.78 09/15/2015 08:17:05 73.90, 49.55 70.78 1.36 69
5 09/15/2015 09:07:41 -73.97,-142.96 109.15 09/15/2015 09:07:45 -73.99,-142.92 109.13 2.58 4
6 09/15/2015 09:57:10 74.06, 24.46 70.97 09/15/2015 09:58:23 74.08, 24.64 70.97 5.73 73
7 09/18/2015 03:52:27 73.88, 116.03 71.83 09/18/2015 03:51:25 73.89, 115.92 71.85 3.41 62
8 09/18/2015 04:41:55 -73.99, -76.56 108.05 09/18/2015 04:42:05 -73.97, -76.54 108.06 1.49 10
9 09/18/2015 05:31:28 74.29, 90.37 72.29 09/18/2015 05:32:38 74.31, 91.63 72.27 37.85 70
10 09/20/2015 23:26:42 73.92,-177.62 72.95 09/20/2015 23:25:45 73.92,-177.60 72.96 0.56 57
11 09/21/2015 00:16:09 -73.97, -10.09 106.98 09/21/2015 00:16:26 -73.96, -10.18 107.00 3.23 17
12 09/21/2015 01:05:47 74.54, 156.22 73.63 09/21/2015 01:06:54 74.54, 158.62 73.58 70.92 67
13 09/23/2015 19:00:56 73.92,-111.18 74.05 09/23/2015 19:00:05 73.95,-111.13 74.08 3.10 51
14 09/23/2015 19:50:23 -73.97, 56.34 105.89 09/23/2015 19:50:46 -73.98, 56.29 105.88 2.02 23




NCC Satellite Simultaneous Nadir Overpasses (SNOs) Prediction Service
